Wind_Gust
17 17 18 20 18 19 19 19 18 18 17 18 19 19 19 20 21 20 20 20 21 21 21 22 22 21 21 21 20 19 18 17 15 15 14 14 14 13 14 13 13 12 11 12 10 8 9 9 8 8 8 10 10 11 11 11 12 12 12 13 14 14 15 18 21 22 18 14 16 18 17 17 20 18 20 18 17 16 13 19 20 19 21 22 21
17 18 18 19 20 20 20 19 19 19 17 18 18 19 19 20 19 20 20 22 22 23 23 22 21 22 21 21 20 20 19 17 16 14 15 15 14 13 13 13 12 12 10 10 10 10 8 9 10 8 9 11 10 15 13 12 13 15 12 12 14 14 13 19 20 22 22 17 18 17 19 17 22 17 17 18 18 18 21 20 21 22 21 21 20
14 16 17 16 18 19 20 22 21 19 20 19 19 19 18 17 18 20 21 21 23 24 24 23 23 22 22 21 21 20 19 18 16 15 15 15 15 14 12 12 11 11 10 9 9 9 9 9 9 9 8 10 11 12 11 13 14 15 13 15 16 16 16 17 20 22 21 21 18 20 18 16 17 20 19 19 18 20 22 22 22 21 21 19 21
12 12 14 17 19 20 23 22 22 22 20 20 19 18 19 18 19 20 21 20 23 23 24 24 24 23 23 22 21 20 20 18 18 17 17 16 15 15 14 12 12 11 9 8 10 9 9 10 9 10 10 11 11 12 12 11 12 14 14 14 15 16 16 16 19 21 22 23 19 21 20 20 21 19 19 19 20 21 21 22 21 22 21 22 22
14 13 15 18 18 21 21 21 23 24 22 19 19 19 19 19 18 20 20 21 21 22 24 24 25 26 25 24 23 22 21 21 20 19 17 16 16 15 14 13 11 10 9 8 5 9 9 10 11 11 11 12 12 12 12 12 15 16 16 16 17 16 15 17 19 20 22 23 23 21 21 22 23 21 20 22 21 20 19 20 20 21 20 21 23
18 17 14 15 17 16 20 22 22 23 24 23 20 20 20 20 19 19 20 21 21 22 23 22 23 25 25 25 24 24 23 22 21 20 19 18 16 14 13 12 12 10 10 10 9 9 9 10 10 11 12 12 13 13 14 14 15 16 16 18 19 18 18 19 20 21 23 24 22 24 20 23 22 21 19 20 21 21 20 20 20 21 21 21 21
16 16 15 14 15 16 18 19 20 20 21 21 21 21 21 21 21 21 21 22 23 23 23 24 22 24 25 24 25 24 23 22 21 20 19 18 17 15 14 12 11 10 9 9 8 8 9 10 10 11 12 12 14 15 15 15 16 16 16 16 17 17 18 19 21 22 24 25 24 22 23 21 20 21 19 18 20 21 21 21 20 17 16 16 18
15 15 15 15 14 14 16 18 19 21 22 21 21 21 22 22 21 21 20 22 23 24 25 26 25 25 25 24 23 22 21 21 20 20 19 18 16 15 14 11 10 11 9 9 9 8 8 9 10 11 12 12 13 14 15 17 17 17 17 17 17 18 19 19 20 22 23 23 24 23 21 22 20 20 21 18 19 19 20 18 18 18 19 19 19
12 13 13 12 13 16 16 15 15 19 22 23 22 22 22 22 22 21 21 22 23 25 25 26 26 26 25 24 23 21 21 20 20 20 19 17 16 15 13 12 11 11 10 10 8 8 8 9 9 9 11 9 8 11 13 13 20 21 20 19 19 20 21 21 22 22 23 24 25 23 23 22 21 20 19 18 18 18 16 16 21 20 21 21 21
11 11 12 11 11 14 15 14 16 16 17 19 21 22 22 21 21 22 22 23 22 23 23 24 25 26 26 25 23 21 21 18 12 9 6 16 15 14 13 13 12 10 9 8 9 8 9 10 10 4 6 8 10 11 12 14 15 19 22 20 20 21 21 22 23 23 23 25 24 24 24 23 22 19 21 19 18 18 19 19 21 20 19 22 22
14 14 16 15 15 14 15 15 15 16 16 17 18 19 20 20 20 21 22 22 22 22 23 25 25 28 29 28 25 22 20 17 16 12 10 5 11 13 12 12 11 10 10 9 9 9 10 11 12 9 12 12 19 16 15 14 14 16 18 18 17 25 23 24 24 22 25 26 25 25 25 25 22 21 21 22 20 19 20 19 21 20 22 21 23
15 16 16 17 18 18 17 16 16 16 16 17 17 17 18 20 20 19 20 20 21 21 23 25 26 25 25 27 24 22 20 16 17 15 12 7 3 10 10 10 10 10 10 9 9 10 11 12 12 12 13 12 17 18 15 16 17 16 16 17 18 20 20 26 26 25 24 26 27 27 26 26 25 22 22 20 20 19 19 20 21 22 23 23 22
15 15 17 17 18 17 17 17 17 17 16 16 15 16 17 19 19 18 19 19 19 21 23 23 22 23 23 24 22 21 21 17 16 15 12 10 6 6 12 10 10 10 9 10 10 11 11 12 13 12 13 5 14 16 17 17 9 15 16 16 19 20 20 22 23 31 29 30 29 29 27 25 26 25 22 23 21 24 22 23 22 22 23 24 24
14 15 16 17 17 17 18 18 18 17 17 16 16 17 16 19 18 18 18 19 20 21 22 22 22 23 24 23 23 22 23 17 17 16 14 11 9 8 10 11 10 11 11 11 11 12 12 13 14 14 14 14 15 15 15 17 19 19 19 20 22 21 23 27 26 26 28 33 31 33 28 26 30 25 23 22 26 27 26 26 24 26 26 27 24
15 16 17 17 18 17 18 18 18 18 18 17 16 17 17 17 18 18 19 19 21 22 23 22 21 21 22 21 22 22 22 19 17 16 14 12 11 8 11 11 12 12 12 12 13 13 14 14 14 15 15 16 15 13 18 19 19 20 21 22 22 22 23 23 25 28 30 32 33 31 30 29 30 29 28 28 27 28 27 28 28 28 30 28 29
17 17 17 17 17 17 18 18 18 18 18 18 18 18 16 18 19 18 18 17 18 18 18 20 21 22 21 21 21 22 22 20 17 16 15 12 12 14 13 13 13 14 13 14 14 15 15 15 15 16 17 18 12 5 9 18 22 23 23 23 23 25 26 17 15 16 25 27 27 28 27 25 19 23 23 24 23 23 25 27 27 28 31 33 33
20 19 18 18 17 18 18 19 19 19 19 19 19 18 18 20 20 20 19 18 19 20 21 20 20 19 19 18 18 19 20 17 16 16 15 14 12 14 11 13 14 14 15 15 16 16 15 15 15 19 19 19 10 4 4 7 22 24 25 25 26 27 27 25 18 18 20 20 22 25 25 26 27 26 24 22 23 21 28 32 34 30 32 34 31
21 21 20 19 19 19 19 20 20 20 19 20 19 18 19 20 20 19 20 20 19 19 17 17 17 16 17 19 20 19 19 16 15 14 14 16 12 12 12 14 14 15 16 16 16 16 15 7 13 20 20 20 7 5 5 12 23 25 28 30 30 30 29 27 29 26 14 17 20 21 22 23 24 27 28 26 24 18 31 41 34 32 37 33 36
21 21 20 20 21 21 21 21 21 21 21 21 19 18 19 20 19 18 18 16 15 16 17 17 16 16 15 16 12 18 18 16 15 15 13 14 14 13 14 15 15 15 17 18 16 17 18 13 13 17 18 18 9 9 8 13 24 26 28 29 31 30 29 28 28 28 27 27 26 26 25 24 29 32 31 24 25 24 36 40 37 37 39 35 33
21 20 20 21 21 22 21 21 21 22 22 20 20 19 19 19 18 19 16 16 16 16 16 16 17 13 11 12 9 10 14 16 18 12 12 11 11 14 15 17 18 18 18 19 19 19 19 20 16 13 14 11 9 9 9 10 22 27 28 30 31 31 28 28 26 26 28 28 28 27 29 28 29 27 27 26 28 30 35 37 37 37 39 37 35
21 20 20 21 22 22 22 22 22 22 21 20 19 19 19 19 19 18 18 17 18 17 16 15 17 16 15 14 13 10 8 12 15 12 9 6 4 7 17 17 18 19 20 20 21 23 23 23 21 12 9 7 7 7 9 11 13 28 30 32 31 29 23 30 30 21 31 30 30 30 31 29 29 29 29 30 31 30 32 33 35 36 37 37 36
22 21 21 22 22 22 23 22 22 22 21 21 21 20 18 18 17 17 17 18 19 17 16 14 15 14 13 13 12 12 8 4 12 10 9 7 6 6 13 14 15 18 20 22 23 23 24 24 24 16 12 8 6 10 13 15 17 31 35 24 23 22 35 34 34 31 30 30 30 30 29 29 29 28 29 29 29 29 31 31 32 33 35 35 35
22 22 22 24 23 24 24 22 23 21 21 21 22 22 16 15 13 15 16 17 18 17 15 15 15 13 10 9 9 9 11 11 5 12 11 8 9 10 7 10 5 16 19 22 22 25 24 24 22 13 20 20 20 21 23 23 22 30 24 23 22 21 23 33 32 32 31 30 30 31 30 30 31 31 30 29 28 28 30 30 31 31 31 34 32
23 23 23 24 25 25 24 23 23 22 22 22 19 17 16 14 14 15 18 19 19 16 16 15 13 12 11 9 10 11 11 11 11 5 11 9 6 5 6 8 8 15 18 22 23 23 23 21 21 22 23 23 24 23 23 23 32 26 26 27 27 24 33 32 30 29 28 29 30 31 31 30 31 31 30 29 28 27 27 27 28 29 30 31 31
24 23 23 24 24 24 23 23 22 22 20 18 17 18 18 20 21 18 20 19 18 16 16 15 14 14 13 13 13 12 11 10 14 12 7 7 8 8 9 10 11 11 19 19 18 21 16 17 20 21 21 23 24 25 22 22 24 24 24 22 22 29 29 28 28 27 28 28 29 30 31 30 31 30 28 26 25 25 26 27 26 27 27 28 29
25 26 27 24 24 23 23 22 22 19 16 18 19 22 25 24 23 24 21 19 16 15 15 15 15 14 13 11 11 11 9 9 10 13 10 10 9 12 12 12 12 13 16 21 16 18 19 19 19 20 20 21 25 24 25 27 18 21 25 26 27 27 25 26 26 28 28 29 29 30 29 28 28 28 26 26 28 29 27 27 26 26 25 25 26
27 26 26 25 23 23 20 20 15 14 16 18 20 22 23 24 25 22 20 20 17 16 16 17 17 17 15 13 10 9 8 7 7 8 11 13 15 14 14 13 12 15 20 17 13 19 23 23 25 20 21 22 24 21 23 23 24 24 23 22 23 24 24 24 25 27 27 28 28 29 28 28 26 25 27 27 27 27 25 27 26 26 24 24 24
28 26 25 24 23 20 18 9 15 18 19 23 25 25 22 18 18 17 15 15 18 18 17 13 13 14 14 12 10 7 8 7 9 11 12 14 15 15 15 15 16 17 19 19 21 24 27 15 18 22 21 21 22 21 21 22 22 22 23 22 24 24 22 17 19 29 30 30 31 31 30 29 29 27 25 26 26 25 24 26 27 26 24 22 21
27 26 26 23 21 15 17 19 19 22 23 19 17 17 19 19 20 19 13 14 14 15 15 13 12 12 11 10 9 8 6 8 13 7 12 6 9 15 15 15 17 17 13 13 23 23 22 21 19 22 21 20 21 22 23 23 21 22 23 24 24 24 24 23 24 25 25 27 28 29 28 28 28 25 24 24 25 22 19 19 21 24 20 21 21
26 27 25 22 17 19 19 21 21 20 22 22 20 18 16 15 13 17 12 9 14 13 10 15 14 12 11 12 13 8 7 14 8 3 2 2 3 6 7 10 10 15 14 16 18 20 18 19 19 20 21 21 22 22 23 23 23 24 22 17 24 24 23 23 24 25 23 25 26 26 25 24 25 24 24 25 26 25 25 17 22 19 21 21 23
26 25 22 17 16 20 22 21 21 17 18 21 22 22 21 24 22 20 14 11 14 16 17 17 16 11 14 15 15 15 13 9 4 3 3 3 4 6 8 9 10 11 13 17 17 16 19 19 20 20 20 21 22 23 23 23 23 24 24 23 23 23 23 24 25 23 23 24 23 23 24 25 26 22 21 22 23 24 22 20 22 24 23 21 24
20 20 19 16 20 20 22 20 19 22 22 21 21 21 25 27 23 18 16 15 17 18 17 17 16 14 14 12 9 16 10 6 3 2 2 4 5 6 9 9 11 12 13 14 18 17 18 19 20 20 21 22 22 22 23 23 24 24 25 25 25 23 24 25 23 24 25 26 25 24 25 24 23 22 22 21 19 22 23 21 23 24 23 24 26
18 15 14 18 17 19 23 23 19 22 24 24 24 23 23 23 23 21 22 18 18 16 15 16 16 14 14 14 13 10 8 6 5 4 5 5 6 7 8 13 15 15 15 15 14 17 17 19 20 20 22 22 23 23 23 24 24 24 24 25 26 25 25 24 19 27 25 25 24 25 23 23 22 22 21 21 21 23 22 22 20 20 21 22 23
17 17 18 20 19 20 23 24 23 20 21 20 24 27 25 24 23 24 23 21 21 16 12 11 12 13 11 10 9 8 7 6 3 2 5 6 8 11 11 12 14 14 12 15 17 18 19 20 20 22 23 22 23 24 24 24 24 24 25 25 25 25 26 26 27 25 24 23 23 23 22 22 21 23 24 23 22 21 22 21 21 21 22 23 23
20 21 21 18 23 22 17 16 21 23 22 19 19 20 19 19 20 22 23 21 20 19 17 15 7 4 13 9 6 6 6 5 4 3 4 6 10 12 16 15 13 13 15 17 18 19 20 21 21 22 23 22 23 24 24 24 24 24 25 25 25 25 25 25 26 24 24 23 22 22 21 22 21 19 20 21 20 22 22 20 21 22 20 19 21
24 22 24 25 23 22 19 18 19 18 18 22 21 21 21 21 20 20 19 19 19 19 16 14 13 5 5 7 7 6 6 6 6 7 8 8 11 13 14 17 16 15 16 16 17 19 21 21 23 23 24 24 23 24 24 25 24 25 25 25 25 24 25 25 25 24 23 24 23 23 21 21 19 20 21 20 19 21 21 19 18 18 18 19 18
26 28 26 21 21 19 18 17 20 22 14 19 23 24 23 21 18 19 18 18 15 16 16 18 18 14 7 12 12 9 9 8 11 12 14 16 12 14 14 13 15 16 16 18 19 20 20 20 20 21 22 23 24 24 24 25 25 25 20 25 24 25 25 25 26 25 27 26 24 23 19 21 21 19 20 20 20 19 20 17 16 14 15 16 12
26 26 24 22 21 21 20 20 22 14 20 21 22 22 21 19 17 16 14 13 14 13 13 16 11 15 15 13 12 11 17 13 11 11 13 13 13 12 16 15 14 16 17 18 19 20 21 20 21 22 23 23 24 25 25 25 25 25 25 24 24 24 22 29 22 21 20 21 21 18 20 19 18 18 17 20 20 20 18 17 17 17 16 15 17
20 18 18 16 12 19 17 15 16 18 16 15 17 17 12 14 12 11 14 13 13 12 11 14 14 10 9 9 13 11 16 17 13 7 7 10 15 14 14 16 15 17 18 19 20 21 21 21 22 22 23 24 25 25 25 25 25 26 25 26 25 25 26 24 24 23 22 22 21 21 20 19 19 18 18 18 18 18 17 15 15 15 16 17 19
20 18 14 13 13 14 14 13 16 16 14 14 14 13 14 12 11 10 12 13 12 11 10 9 9 9 7 4 7 10 9 4 4 6 7 8 15 14 13 15 16 17 19 20 21 21 21 21 22 23 24 24 25 25 24 25 25 25 25 25 25 25 25 24 24 24 23 23 22 21 20 19 19 18 17 18 17 15 16 16 15 15 16 15 15
17 17 10 9 10 15 15 17 16 16 12 15 15 15 12 12 11 10 12 11 10 9 8 11 12 14 15 14 9 12 13 8 6 4 6 8 13 12 14 15 17 17 18 20 21 21 21 21 22 23 24 24 24 25 25 26 26 25 25 25 25 24 25 24 23 23 23 22 21 21 20 19 18 17 15 14 11 12 14 14 14 15 15 15 13
15 15 15 15 11 15 17 15 14 14 12 8 12 9 11 11 10 10 10 8 8 8 8 7 12 15 14 12 9 12 13 8 8 10 7 7 11 13 13 14 15 16 19 20 21 22 21 21 23 23 24 24 23 23 24 24 24 25 25 25 25 24 25 24 24 23 23 23 21 19 17 16 17 16 14 7 11 13 13 14 14 13 14 13 13
13 13 14 13 12 15 16 15 14 13 10 11 11 9 11 13 12 12 10 11 10 9 6 6 8 11 13 8 9 9 11 5 4 8 7 8 9 11 12 14 16 16 17 18 21 21 21 22 23 24 24 24 23 23 25 25 24 24 24 24 25 25 25 25 24 23 21 21 20 18 17 16 16 14 9 8 9 10 11 11 11 11 11 13 14
13 13 13 14 17 18 16 16 16 15 13 13 12 15 14 14 12 12 10 8 7 7 7 8 7 6 6 11 10 8 7 7 7 8 8 8 10 10 12 14 16 17 17 19 20 21 22 22 23 24 23 23 22 17 21 23 23 24 23 25 25 24 24 24 23 22 22 22 20 19 18 15 14 13 7 6 8 8 8 8 10 11 13 14 14
13 13 15 17 18 18 19 18 18 15 15 13 12 13 15 16 13 11 9 8 11 9 9 8 7 6 9 6 6 6 7 7 7 7 8 9 10 10 12 13 15 16 18 19 20 20 20 22 22 22 23 24 24 23 23 23 22 22 22 24 23 24 25 24 23 21 19 17 19 17 16 15 12 10 5 5 7 8 9 9 11 10 13 14 15
15 16 18 19 19 19 18 18 16 17 14 13 12 13 13 16 15 15 13 11 11 8 7 7 6 7 6 7 7 10 7 7 7 8 12 10 11 11 11 13 15 16 17 19 20 19 21 21 22 23 24 24 23 24 24 22 24 23 20 20 21 21 21 21 20 18 18 16 17 16 14 12 9 7 5 6 8 9 10 12 12 13 13 13 13
18 19 20 20 20 20 20 18 18 18 18 16 16 15 14 16 15 14 14 14 12 11 8 8 7 7 7 7 7 7 9 8 8 9 9 10 11 12 12 13 15 16 17 18 17 20 20 21 22 22 22 22 23 20 20 24 25 24 22 21 20 18 19 18 18 16 16 15 13 12 12 10 9 7 8 9 10 12 12 14 13 13 14 15 15
19 20 21 19 19 19 19 18 19 14 18 18 18 16 15 14 13 13 12 11 13 13 13 13 12 10 10 7 10 8 10 9 9 11 10 10 11 12 13 12 14 16 17 17 17 19 20 20 21 20 21 19 20 24 24 24 24 25 23 21 20 22 24 20 17 16 16 14 12 11 10 10 9 9 9 10 11 13 15 17 16 16 14 14 14
20 20 20 21 20 19 18 19 18 18 18 17 16 16 15 14 13 13 12 13 14 14 14 13 13 12 11 10 12 12 11 11 9 9 10 11 12 13 13 13 13 16 17 17 18 18 19 20 20 21 21 22 21 19 19 23 25 24 23 22 24 25 23 23 19 22 20 17 13 11 10 10 11 10 11 12 14 16 16 13 14 15 16 16 17
21 20 20 20 20 19 19 19 19 18 17 17 15 14 14 13 13 14 15 15 15 15 14 13 13 13 13 13 13 13 12 11 10 11 11 12 13 14 14 14 15 16 16 16 17 18 19 19 19 20 22 22 22 19 21 20 18 21 21 25 25 24 24 23 20 22 22 15 14 13 13 13 12 11 13 14 14 14 14 13 12 13 15 16 17
21 21 21 21 20 19 19 19 19 19 18 15 15 14 14 14 13 14 15 16 14 15 14 13 13 13 13 13 12 12 13 13 13 12 12 13 14 14 14 15 15 15 16 16 16 18 18 20 21 21 22 22 23 23 21 19 16 17 21 27 25 24 24 24 25 21 23 15 14 14 17 16 16 14 13 15 15 16 17 15 15 17 18 18 17
Wind_Speed
8 8 8 10 10 10 10 10 10 9 9 8 9 9 10 10 10 10 10 10 10 11 11 11 11 11 11 10 10 9 8 7 6 6 5 5 4 5 6 5 5 4 3 4 3 1 1 1 1 1 1 3 3 3 3 3 4 4 4 5 5 5 6 7 9 9 7 5 6 7 7 7 8 8 9 7 7 6 8 9 9 9 9 9 10
7 7 8 8 10 11 11 10 9 9 9 9 9 9 9 9 10 10 11 11 12 12 12 11 11 11 10 11 10 10 9 8 7 6 5 6 6 4 5 5 4 4 3 2 3 2 1 1 1 1 2 3 3 5 4 3 4 5 4 4 5 5 5 7 8 8 9 7 7 7 7 7 9 7 7 8 8 8 10 9 8 10 9 9 8
5 7 8 8 9 9 10 11 11 11 11 10 10 10 9 9 9 10 10 10 12 12 12 12 12 12 11 11 10 10 10 9 7 7 6 7 6 5 5 4 4 4 3 2 1 1 2 1 1 1 1 3 3 4 4 5 5 5 5 5 6 6 7 7 8 9 10 9 8 8 7 6 7 9 9 8 8 9 10 10 9 8 8 8 8
3 3 6 7 7 7 8 10 12 12 11 10 11 10 9 9 9 10 11 10 11 12 13 13 13 12 12 11 11 10 10 9 9 8 8 8 7 7 6 5 4 3 2 1 0 1 1 1 1 1 1 3 3 3 4 4 4 5 6 6 6 7 7 7 8 9 9 10 8 8 8 8 8 8 8 8 9 9 9 9 9 9 10 9 9
6 3 4 5 6 6 7 9 12 13 12 9 10 10 10 9 8 10 10 10 11 11 12 13 13 14 12 13 12 12 11 10 10 9 8 8 7 6 6 5 4 3 2 1 2 2 2 2 2 2 2 3 3 3 3 5 5 6 6 6 7 7 6 6 8 9 10 11 10 9 9 9 9 9 8 9 8 8 9 9 8 9 9 9 9
8 7 6 5 4 5 7 10 12 14 14 12 11 10 10 10 10 9 10 11 11 11 12 11 11 13 13 13 13 12 12 11 11 10 9 8 7 6 5 5 4 3 3 2 1 1 2 2 2 3 3 4 4 3 4 6 5 6 7 7 7 7 8 9 9 10 11 11 10 10 9 9 9 8 8 9 9 8 8 8 9 9 10 9 9
8 8 8 7 5 5 8 10 9 11 11 11 10 11 11 11 11 11 10 11 12 12 12 13 11 12 13 13 13 13 12 11 10 10 9 9 8 7 6 5 4 3 2 2 1 1 2 2 2 3 4 4 4 5 5 6 5 7 7 7 7 7 7 8 9 10 11 11 10 10 10 9 9 9 8 8 9 9 9 9 8 6 6 6 7
6 6 5 6 5 5 6 6 8 9 9 9 9 10 11 11 11 11 10 12 12 13 13 14 13 13 13 13 12 11 11 11 10 10 9 8 7 7 6 4 3 3 3 2 2 1 1 2 2 2 3 4 4 5 6 6 6 7 7 7 7 8 8 8 9 9 10 10 10 9 8 9 8 9 8 8 8 8 7 7 7 7 7 8 9
3 4 4 4 5 7 7 7 7 8 8 9 9 10 11 11 11 11 10 11 10 12 13 14 14 14 13 13 12 11 10 9 9 9 9 8 7 6 5 5 4 3 3 3 2 1 1 1 2 1 3 5 6 7 8 8 7 8 8 8 8 9 9 9 9 9 10 10 11 10 10 9 9 9 8 7 7 7 6 6 9 9 9 9 9
3 4 4 4 4 6 6 7 7 7 7 7 8 10 11 11 11 12 12 12 11 11 12 12 13 14 14 13 12 10 9 7 7 8 4 7 7 5 5 5 4 3 2 2 2 1 1 2 1 3 4 7 8 9 10 10 10 9 9 8 9 9 9 10 10 10 10 11 11 10 11 10 9 8 9 9 8 8 9 8 9 8 8 9 9
4 4 5 5 6 6 6 6 6 7 7 7 7 8 9 9 10 11 12 12 12 11 11 12 11 10 13 13 13 11 9 7 13 11 9 4 4 5 5 4 3 3 3 2 2 2 2 2 4 3 8 10 11 14 13 12 12 13 13 14 13 11 10 11 11 11 11 11 11 11 11 12 10 9 9 9 9 9 9 8 9 8 9 9 9
5 5 6 6 7 7 7 7 8 7 7 7 7 7 7 8 10 10 10 11 10 10 11 12 14 14 11 12 12 11 9 13 14 13 11 6 2 3 3 3 3 3 3 2 2 2 2 3 3 3 4 4 7 7 8 13 14 14 13 14 14 15 16 13 12 11 11 12 12 12 12 12 11 10 9 9 8 8 8 9 9 10 10 10 9
5 6 7 8 8 7 8 8 8 8 7 7 7 7 8 8 8 9 10 10 9 10 11 11 12 12 12 12 11 10 10 13 14 13 11 9 5 2 4 3 3 3 3 3 3 3 3 4 4 4 3 4 6 6 7 7 8 13 13 14 15 16 15 17 18 16 14 14 14 15 13 12 13 11 11 10 9 11 10 10 9 10 10 11 10
5 6 7 7 8 8 8 8 8 8 8 7 7 8 7 8 8 8 9 9 10 11 11 12 12 12 12 12 11 10 12 13 15 13 12 10 8 4 3 4 3 3 4 4 4 4 4 5 5 5 5 5 6 6 6 7 9 8 8 9 10 12 18 21 20 20 19 16 16 16 14 13 14 13 12 11 12 12 11 11 10 12 12 13 13
6 7 8 8 8 8 8 8 8 8 9 8 8 8 8 7 7 8 9 10 11 10 11 12 11 10 11 11 11 11 10 15 14 14 12 10 8 5 3 3 4 5 5 5 5 6 6 5 6 6 6 6 5 5 8 9 9 9 9 10 10 11 11 12 12 14 14 15 17 17 16 15 16 16 15 14 15 14 13 14 14 14 15 15 15
8 8 8 8 8 8 8 8 9 9 9 9 9 9 8 7 7 8 8 7 7 8 9 10 11 12 11 11 11 11 11 16 14 14 13 10 10 5 4 5 5 5 5 6 6 6 6 6 6 6 7 7 6 3 5 7 10 11 11 11 11 11 11 12 12 10 13 14 13 12 12 13 14 12 12 11 11 11 11 13 13 13 14 15 15
9 9 8 8 8 8 8 9 9 9 9 10 9 9 8 8 8 8 9 8 8 9 9 10 10 10 10 10 10 9 10 11 13 13 13 11 8 5 4 4 5 5 6 6 7 7 7 7 6 7 8 9 4 4 1 4 10 11 12 12 12 12 12 11 11 15 17 17 17 19 20 20 20 19 17 17 13 11 12 13 14 13 15 15 14
10 10 9 9 8 8 9 10 10 10 9 10 10 8 8 7 8 8 9 8 8 8 8 8 8 8 9 10 10 10 10 10 12 12 12 13 9 4 3 4 5 6 7 7 7 7 7 5 8 10 10 9 3 3 1 5 10 11 12 13 14 13 13 11 11 11 12 15 16 17 18 18 20 22 23 21 19 14 13 18 17 14 17 15 15
10 10 10 9 9 10 10 10 11 11 11 10 9 9 8 8 8 8 9 7 7 7 8 8 8 8 8 9 10 10 10 10 12 13 11 12 8 4 4 5 5 6 6 7 7 7 7 7 11 11 10 10 6 5 5 7 10 12 14 15 15 15 14 14 14 14 14 14 13 12 13 16 17 17 17 20 20 18 18 18 18 18 19 16 15
11 10 10 9 9 9 9 11 11 11 11 10 10 9 7 7 8 9 8 6 7 7 7 8 9 7 6 7 4 5 8 8 11 10 10 10 9 4 4 6 7 7 7 7 8 8 9 9 9 12 12 9 6 6 7 8 9 13 14 14 14 15 13 14 14 13 14 14 14 15 16 15 15 14 14 14 14 17 18 18 17 18 17 17 16
11 10 10 9 10 10 10 10 11 11 10 10 9 9 8 8 8 9 7 6 7 8 8 8 8 8 7 6 6 4 4 6 8 10 8 6 3 3 5 7 7 7 7 8 8 10 10 10 9 5 8 6 6 6 8 8 9 13 15 15 15 14 13 14 16 17 16 16 16 15 15 14 14 14 14 14 14 14 15 17 18 17 18 17 16
11 11 11 10 10 10 11 11 11 10 10 10 10 9 9 9 8 8 6 8 10 9 7 7 8 7 6 6 5 5 3 2 6 8 8 6 5 4 6 5 5 6 8 9 10 10 10 10 11 7 10 7 6 7 9 11 12 14 16 18 17 16 16 17 16 15 14 14 13 13 14 13 13 13 13 14 14 14 14 15 16 17 17 17 17
11 11 11 11 11 11 11 12 11 9 10 10 11 12 8 7 6 6 8 8 9 9 8 8 8 6 5 3 3 4 4 4 4 7 9 7 8 9 6 5 2 5 7 9 10 11 11 11 9 11 17 16 16 16 17 17 16 15 16 15 15 15 15 15 15 15 14 14 14 15 14 14 14 14 14 14 13 14 14 14 15 16 16 16 17
12 12 11 11 11 11 11 12 12 11 11 11 10 9 7 7 6 6 8 9 8 8 7 7 6 6 5 4 4 4 5 5 6 4 8 8 6 4 5 6 6 6 7 9 10 10 10 9 10 17 17 17 17 17 17 17 15 18 18 19 19 17 14 15 14 14 14 14 14 15 15 14 14 14 14 13 13 13 13 13 14 15 16 16 17
12 12 11 11 12 13 12 11 11 11 10 8 6 6 8 8 8 8 8 9 8 8 7 7 7 6 6 6 6 5 5 4 6 7 7 7 7 7 7 7 8 7 7 8 8 8 9 11 14 15 15 17 18 19 17 17 18 17 16 16 15 12 13 12 12 12 13 13 14 14 14 14 14 14 14 13 13 13 13 13 13 14 14 15 16
13 14 14 13 13 12 12 12 11 10 6 7 8 9 10 11 11 12 10 8 8 7 6 7 7 7 6 5 5 5 4 3 3 5 7 8 8 9 8 10 10 11 12 11 13 15 15 15 15 16 16 14 12 11 12 13 14 16 18 17 12 12 11 11 12 12 13 13 14 14 14 13 13 13 13 13 13 13 13 13 13 12 12 12 12
15 14 14 13 13 12 11 10 7 4 6 6 7 8 10 11 13 11 10 9 8 8 8 8 8 8 7 6 4 3 2 1 1 1 2 3 4 1 6 6 11 13 10 7 8 8 8 10 11 14 15 17 18 17 17 16 13 11 9 9 10 10 11 11 12 12 13 13 13 13 13 13 12 13 12 12 13 13 12 12 12 13 12 12 11
14 14 13 12 11 10 9 6 7 6 8 8 8 9 10 9 8 6 5 7 9 8 8 6 6 7 6 5 4 2 2 1 2 3 4 4 5 5 5 6 6 6 7 7 8 10 11 11 11 9 9 9 10 9 9 10 10 11 10 10 11 11 12 13 14 14 14 14 14 14 14 14 14 13 12 12 12 12 12 12 12 12 10 10 9
15 15 13 11 10 6 5 8 8 8 8 8 7 8 9 9 10 9 7 5 6 7 6 7 6 6 5 4 4 3 1 2 5 6 4 5 3 5 5 5 7 7 7 10 10 10 10 10 8 9 9 9 9 9 10 10 10 10 12 11 11 11 11 11 11 12 11 12 12 13 14 14 13 12 12 12 12 10 8 9 10 12 10 10 10
15 14 12 10 8 7 8 7 8 9 10 9 9 9 13 13 8 8 5 8 12 10 9 6 5 5 5 5 6 3 2 5 7 3 2 1 1 4 5 8 8 8 11 13 11 9 8 8 8 9 9 9 10 10 10 10 10 10 10 11 11 11 11 11 12 12 11 12 12 12 12 11 12 12 11 10 11 11 10 10 10 10 10 11 11
12 11 10 8 6 9 9 9 10 9 8 9 8 10 9 11 17 15 10 9 11 13 14 15 14 10 7 4 7 12 11 7 4 3 2 2 3 5 6 7 8 9 11 8 7 7 8 9 9 9 9 10 10 11 11 11 11 11 11 10 10 11 11 11 12 11 11 12 11 11 11 12 12 10 9 10 10 11 10 10 11 11 11 10 11
9 9 8 6 8 9 10 10 9 10 9 8 7 9 11 12 10 13 12 12 14 15 14 14 13 12 12 8 5 6 5 5 3 2 1 3 4 5 7 8 9 10 11 10 7 7 8 8 9 9 9 10 10 10 11 11 11 11 11 11 11 11 11 12 10 12 12 13 12 12 12 12 10 10 10 10 9 10 10 10 10 10 10 11 13
10 8 7 8 9 9 10 10 10 10 12 12 10 7 7 10 10 8 10 15 15 13 13 13 13 12 12 12 11 9 7 6 5 2 3 3 5 6 7 10 12 12 12 8 5 8 8 8 9 9 10 10 10 10 11 11 11 11 11 11 12 12 11 12 11 13 12 12 12 12 11 11 11 11 10 10 10 11 10 11 9 9 10 10 12
6 8 9 9 10 10 11 11 11 9 9 8 11 11 12 11 10 11 10 8 9 10 11 10 10 11 9 8 8 7 6 5 3 0 2 5 6 9 9 7 11 12 8 5 7 8 8 9 9 10 11 10 10 10 11 11 11 11 11 11 12 12 13 13 13 13 12 11 11 11 11 11 10 10 11 11 10 11 11 10 10 10 11 11 11
10 12 16 13 11 10 8 8 10 11 11 9 9 10 9 10 10 10 10 10 9 8 7 5 4 3 6 6 5 5 5 4 2 1 2 5 8 10 12 6 3 2 4 7 8 9 9 9 9 10 11 10 11 11 11 12 11 12 12 12 12 12 12 12 12 12 12 11 11 11 10 10 9 9 10 10 10 10 10 10 10 10 9 9 9
12 11 12 14 13 11 9 7 8 9 8 9 9 8 9 9 9 9 9 9 9 8 7 5 5 5 3 6 6 4 3 3 5 5 7 7 10 10 4 6 6 6 6 7 7 8 9 9 10 10 11 11 10 11 11 12 12 12 12 12 12 12 12 12 12 12 11 12 11 11 11 9 9 10 10 10 10 11 10 10 9 8 7 8 8
13 12 12 11 11 9 9 8 8 9 9 7 9 10 10 9 9 9 8 8 6 7 6 7 7 5 4 5 5 6 7 5 7 10 12 13 10 7 4 5 6 6 7 8 8 9 9 9 9 9 10 10 11 11 11 12 12 13 12 12 12 12 12 11 12 12 14 13 12 11 11 11 11 10 9 10 8 9 10 9 8 7 7 8 8
13 14 12 11 11 11 10 10 11 10 11 10 11 11 11 9 8 7 6 5 5 5 5 6 6 4 4 4 10 6 7 10 9 10 11 10 6 3 6 6 6 7 7 8 9 9 9 9 9 10 10 10 11 12 12 12 12 12 12 12 12 11 14 13 13 10 9 11 11 9 10 9 9 9 8 9 9 9 9 9 8 8 7 8 8
10 14 15 13 10 9 8 7 8 9 8 8 9 8 5 6 5 4 5 5 5 4 3 5 5 3 2 3 4 6 9 7 4 1 2 3 6 5 5 6 6 7 8 8 9 10 9 10 10 9 10 10 11 11 12 11 11 12 12 13 12 12 12 11 12 11 11 11 10 10 9 9 9 8 8 9 9 9 9 8 7 7 7 7 8
10 8 9 11 8 7 7 6 7 7 7 7 6 5 6 5 4 4 4 4 4 3 3 3 2 2 2 1 2 3 2 0 1 0 2 2 6 6 5 6 7 7 8 9 9 10 10 9 9 9 10 11 11 12 12 12 12 12 12 12 12 12 12 12 11 12 11 11 11 10 10 10 9 9 8 8 8 7 7 7 7 7 8 7 7
8 8 7 7 6 7 8 8 8 8 5 7 7 7 5 5 4 4 4 4 3 3 2 3 4 5 6 5 5 6 3 2 1 1 0 2 5 4 5 5 6 7 8 9 9 9 9 9 9 10 10 11 11 11 12 12 12 12 12 12 12 12 11 11 12 12 11 11 10 10 10 9 9 8 7 7 7 7 6 6 6 6 7 7 6
6 6 6 6 5 7 8 7 6 6 6 3 4 3 4 4 3 3 3 3 3 2 2 2 4 5 6 6 5 6 5 2 2 3 2 1 3 5 5 5 6 7 7 8 9 10 9 9 10 10 11 11 11 11 11 12 12 12 12 12 12 12 11 11 11 12 12 11 11 10 9 8 8 8 7 6 5 5 5 6 6 6 6 6 6
6 5 5 5 4 6 7 6 6 5 4 4 4 5 5 4 4 5 3 3 3 2 1 1 2 3 5 5 2 6 4 1 2 2 2 2 3 4 4 5 6 6 7 8 8 9 9 9 10 10 11 11 11 11 12 12 12 12 12 12 12 12 12 11 11 11 10 11 10 9 9 8 8 7 4 3 4 4 5 5 5 4 4 5 5
6 6 5 5 6 8 7 7 7 7 5 7 6 6 5 5 4 4 3 2 2 1 1 1 1 1 1 4 3 1 1 2 2 2 2 3 3 4 4 5 6 7 7 8 8 9 9 10 10 10 11 11 9 8 10 11 11 11 12 12 12 13 12 12 11 11 11 11 10 10 9 8 7 6 3 3 3 3 3 3 4 4 4 5 6
6 6 5 6 7 8 8 8 8 6 7 6 4 4 6 6 4 4 2 2 3 2 2 2 1 1 1 1 1 1 2 1 2 2 2 3 3 3 4 5 6 6 7 8 8 9 9 10 10 11 12 11 9 10 11 11 11 11 11 12 12 12 12 12 12 11 10 9 9 8 8 7 6 4 2 2 3 3 3 4 4 6 5 6 6
6 6 7 8 8 8 8 7 7 7 5 5 4 4 4 6 6 5 4 4 3 2 1 1 1 1 1 1 1 2 1 1 1 2 3 3 4 4 4 5 6 7 7 7 8 9 9 10 10 11 11 11 10 10 11 9 10 10 9 9 10 11 11 10 10 9 8 8 8 7 7 6 4 2 2 1 2 3 3 5 5 5 5 7 6
8 8 8 8 9 9 9 8 8 7 7 6 6 6 5 6 5 5 5 5 4 3 2 1 1 2 2 2 2 1 2 1 2 2 3 3 4 4 5 5 6 7 7 7 7 8 9 10 10 11 10 10 11 11 9 10 12 12 11 10 10 9 9 9 9 8 8 8 7 5 5 4 4 2 2 2 3 5 5 5 6 6 6 7 7
8 8 9 8 8 8 8 8 8 8 8 8 7 6 6 5 4 4 4 3 2 2 2 3 3 3 3 2 3 2 2 2 2 3 2 3 3 4 5 6 6 6 7 7 7 8 9 9 10 10 10 10 8 9 10 10 10 12 11 10 10 11 14 14 9 9 8 7 5 5 5 4 3 3 3 3 4 5 6 7 7 7 7 6 5
9 9 9 9 9 8 8 8 8 7 7 7 7 7 6 5 5 4 3 3 2 3 4 4 4 4 3 3 4 3 3 3 2 2 2 3 3 4 5 6 6 7 7 7 7 8 9 9 10 10 10 10 9 8 6 9 9 8 9 11 13 19 17 17 12 12 12 8 6 5 5 4 4 4 5 5 5 5 6 6 7 7 8 7 8
9 9 9 8 9 8 8 8 8 8 7 7 6 6 6 5 5 5 4 4 4 4 4 4 4 4 4 4 4 4 4 4 3 3 3 3 4 4 5 6 7 7 7 7 7 8 8 8 10 10 10 9 9 10 10 9 8 9 9 12 19 19 18 17 15 17 12 7 7 6 6 6 6 5 6 7 6 6 6 6 6 6 7 8 9
9 9 9 9 9 8 8 8 8 8 8 6 6 6 5 5 4 5 5 5 4 5 5 5 4 4 4 4 4 4 5 5 4 4 4 4 5 5 5 6 7 7 7 7 7 7 7 9 9 10 9 9 10 11 11 10 8 8 15 20 20 18 18 17 14 16 18 12 7 6 7 7 7 7 6 6 7 8 8 8 7 7 7 9 8
Wind_Direction
209 211 212 219 223 223 224 227 227 227 226 214 212 208 204 199 197 194 190 192 185 184 189 188 188 188 186 184 183 180 176 177 177 174 174 161 150 139 148 151 151 136 143 149 144 127 30 341 266 246 273 291 308 294 276 298 276 268 274 279 273 268 266 272 278 284 284 283 285 288 296 299 285 284 288 289 289 284 279 280 284 285 283 274 271
225 230 225 222 224 229 233 234 234 231 227 224 222 220 209 205 200 194 194 192 190 190 193 191 193 192 192 190 188 186 184 180 179 183 178 163 152 153 157 155 148 136 147 142 143 162 176 296 323 325 302 300 288 287 291 286 284 274 262 265 279 282 274 283 285 288 291 293 287 291 295 292 288 289 294 296 290 286 281 279 275 273 268 271 266
277 251 233 229 231 234 235 236 237 233 227 226 224 221 216 209 202 200 198 194 193 194 196 194 195 195 194 194 192 190 189 182 180 184 178 177 171 163 164 158 156 155 159 155 176 128 194 209 213 175 228 267 277 275 282 271 282 293 289 287 288 288 287 281 288 288 292 292 293 289 285 288 288 293 290 287 291 294 289 281 278 272 274 271 271
265 282 281 264 258 255 253 258 253 244 233 227 225 219 218 213 207 207 206 200 197 196 198 198 196 197 196 196 194 189 188 181 182 186 183 182 176 170 168 166 166 167 168 197 279 266 282 260 213 228 248 265 278 294 280 282 275 283 289 277 266 266 271 279 273 280 287 288 290 289 293 294 285 279 280 281 279 276 279 285 277 272 271 265 262
3 304 266 272 269 272 279 277 270 265 258 248 232 225 221 221 215 212 208 206 202 197 199 200 199 198 197 197 193 188 188 184 185 185 179 178 175 169 175 167 170 178 190 211 208 256 276 280 293 299 279 277 273 271 300 301 294 291 289 289 284 283 276 267 273 276 281 282 286 285 286 281 281 283 283 283 282 279 278 277 282 287 283 283 286
15 6 349 313 297 283 262 254 256 255 252 250 249 239 230 225 220 214 212 211 205 202 201 199 203 202 200 198 193 189 188 186 187 184 176 170 169 172 171 173 177 191 193 224 231 234 259 283 287 285 296 285 286 288 285 286 289 284 284 287 292 297 292 289 281 274 273 275 277 281 274 276 280 277 283 282 282 286 286 286 282 275 272 270 268
16 1 358 347 329 305 279 269 266 259 259 258 257 253 245 237 227 220 211 211 207 199 190 195 197 206 204 199 194 190 188 186 185 179 171 170 171 170 173 177 186 181 201 203 201 219 256 275 284 282 279 289 289 285 284 284 276 278 275 275 275 276 277 279 282 284 283 283 281 277 279 273 268 276 274 278 281 279 282 284 279 274 270 274 271
359 355 345 333 326 310 293 291 282 276 273 270 266 260 254 248 243 237 221 214 210 199 197 201 203 204 204 197 191 188 185 185 181 171 173 170 169 171 169 179 179 170 170 182 163 200 209 242 266 288 292 298 318 309 305 289 292 285 280 279 278 277 275 275 273 275 277 278 279 284 283 286 283 274 274 268 271 274 270 286 297 303 298 295 289
340 327 327 324 327 314 311 308 301 287 278 268 260 255 254 251 244 235 224 213 206 207 210 209 206 202 197 189 184 179 180 176 173 173 169 169 170 167 167 166 167 166 173 163 173 193 236 235 256 303 7 346 331 302 293 301 291 279 277 278 275 273 271 269 270 270 270 270 273 275 277 279 282 285 281 277 275 286 303 303 289 287 285 282 279
337 326 316 315 301 295 293 284 281 282 275 265 260 259 255 248 244 241 235 225 216 219 223 217 208 197 186 180 176 169 169 175 109 120 139 168 168 157 159 166 169 166 178 182 192 219 264 276 255 153 225 232 240 239 240 246 249 262 279 284 278 275 271 272 271 269 271 272 272 275 276 272 276 281 285 288 292 289 282 275 271 277 281 279 275
337 332 323 319 309 296 288 286 284 276 272 271 265 254 250 251 244 242 236 234 229 218 212 204 191 196 190 177 169 166 161 127 121 114 100 85 153 156 161 155 163 190 196 203 256 255 270 292 304 200 207 219 221 217 232 238 234 240 248 256 269 276 279 274 271 270 271 274 273 270 268 270 268 270 275 284 286 285 284 285 281 278 276 279 280
328 325 318 311 304 302 300 295 291 290 283 272 263 260 254 251 247 243 239 233 224 210 207 203 203 199 188 177 167 161 144 128 129 128 127 130 94 147 158 168 185 211 205 236 243 268 282 289 286 293 281 295 310 288 235 214 220 229 231 239 243 249 254 263 270 270 267 269 269 266 267 266 268 266 267 269 277 283 283 284 282 279 275 272 271
319 316 313 310 306 301 298 295 293 293 288 280 272 260 253 250 247 243 239 233 229 225 215 203 198 186 180 169 161 147 132 138 133 135 134 130 131 216 178 171 221 207 232 248 265 278 285 288 283 280 290 182 243 269 292 290 219 207 221 226 232 235 240 238 243 255 271 271 271 270 265 271 271 266 267 270 273 276 277 274 276 278 274 269 271
310 303 299 298 298 296 294 293 291 290 288 278 269 261 251 246 246 244 239 230 229 229 222 207 195 185 175 168 159 145 139 146 144 147 146 149 157 218 182 178 232 242 240 250 253 265 269 279 286 284 285 287 292 284 300 298 300 289 269 268 270 237 221 227 234 236 238 251 258 263 266 267 269 273 274 274 269 268 271 270 275 276 275 274 281
303 297 293 294 294 293 291 289 288 286 284 280 271 262 256 249 243 243 238 232 226 224 220 210 197 178 170 166 153 141 140 152 152 150 148 154 163 217 195 189 232 234 235 242 249 254 259 256 265 279 286 291 294 306 295 296 296 290 281 277 271 272 277 266 241 230 227 227 242 253 264 267 268 270 270 269 266 266 270 276 275 273 278 286 281
296 294 290 289 289 291 291 288 283 279 274 271 267 261 254 246 243 243 239 223 211 216 209 195 178 174 167 151 140 139 145 157 153 153 151 155 165 204 200 212 237 245 252 255 253 258 258 263 270 279 290 291 305 153 235 291 293 287 284 279 276 275 273 267 260 276 285 290 281 277 280 293 310 306 307 307 309 308 294 271 262 259 265 266 262
296 295 291 291 292 290 289 286 282 277 275 269 261 256 250 240 237 241 237 225 201 197 191 182 171 160 144 136 127 128 139 161 153 153 155 157 173 216 216 237 251 250 256 263 262 262 262 263 270 287 290 286 319 66 142 265 291 286 285 283 281 281 276 277 252 224 224 241 260 274 280 283 284 287 285 283 283 289 286 275 263 266 265 265 268
295 294 294 297 294 292 288 285 280 273 267 264 260 253 245 240 243 236 232 215 200 192 179 163 153 134 125 125 135 141 152 160 162 160 161 168 198 233 256 266 268 271 273 270 271 270 270 224 248 269 275 279 323 101 86 284 287 289 289 290 288 283 282 280 276 266 227 216 227 239 251 263 271 273 276 275 270 258 260 254 256 262 261 261 265
289 290 292 293 294 292 289 284 279 274 269 265 260 252 242 238 242 232 226 208 189 168 161 150 124 119 123 128 132 139 148 162 169 168 172 177 206 244 274 280 280 276 280 280 276 280 283 258 210 225 256 275 288 266 247 255 278 290 293 291 287 282 282 284 282 281 279 275 265 251 243 235 239 247 249 245 247 252 254 254 255 253 256 256 258
283 284 282 284 287 287 283 278 274 270 269 267 261 252 244 237 232 227 217 184 157 146 124 116 110 96 92 102 96 116 139 163 175 167 171 180 210 273 305 293 283 284 285 291 297 291 288 286 271 209 218 239 261 261 249 242 264 288 290 283 281 278 282 282 283 289 285 279 275 272 272 275 275 273 272 265 246 234 237 245 243 243 249 252 252
278 275 276 277 281 283 282 277 275 271 267 265 263 255 244 236 225 217 184 156 146 138 132 125 120 122 125 133 135 122 124 151 155 168 174 164 154 251 270 287 292 298 299 300 294 294 293 293 293 338 110 144 193 216 232 236 250 280 282 277 273 285 303 288 285 288 279 274 272 270 269 267 264 262 260 257 255 253 248 240 240 239 243 247 249
273 270 266 271 275 279 280 276 272 269 266 263 258 250 241 235 221 202 167 155 149 138 124 119 122 121 129 144 138 130 90 57 142 157 134 143 159 215 268 288 344 305 297 290 291 286 291 295 293 38 48 6 336 304 286 280 274 280 278 278 284 287 281 278 281 279 274 270 268 267 266 263 262 261 258 256 255 253 250 249 243 241 241 242 247
266 264 264 266 271 275 277 275 271 267 263 262 253 243 222 207 173 148 142 139 129 127 126 123 119 115 120 134 132 143 158 161 137 145 155 169 176 204 220 283 341 276 286 287 290 289 287 292 290 16 340 329 317 310 300 291 285 279 281 280 275 274 273 274 273 271 266 264 262 262 260 258 258 257 256 257 256 254 253 250 249 248 245 245 243
260 259 258 262 267 272 273 271 265 262 260 255 244 230 197 179 147 139 133 135 130 120 123 121 117 125 139 154 164 170 176 153 153 166 146 168 172 193 201 225 255 276 298 292 287 287 287 298 329 331 311 299 289 285 284 283 284 283 277 274 272 271 273 274 267 263 263 262 261 257 255 252 253 254 254 255 255 254 254 254 253 251 250 249 249
255 252 252 256 260 267 269 264 262 258 256 240 196 166 160 147 136 140 132 136 131 126 134 135 140 144 146 164 163 159 146 148 142 150 161 170 193 202 208 226 233 238 262 277 279 289 301 297 285 280 281 281 280 275 270 260 253 253 258 261 265 276 274 269 265 261 259 257 255 255 255 254 255 258 260 259 259 257 254 253 252 252 251 250 250
261 258 260 257 258 260 262 261 258 259 232 186 179 179 164 156 150 148 140 136 131 127 132 139 138 148 150 142 134 134 149 173 168 157 174 183 199 191 219 214 224 216 231 264 266 266 261 259 261 260 263 268 279 296 306 301 299 292 286 281 278 275 269 266 263 261 260 261 259 259 260 262 261 259 258 257 256 253 250 249 248 247 245 246 250
263 259 258 256 253 253 253 255 251 206 179 182 179 175 165 162 155 147 141 140 139 139 132 143 153 149 141 130 129 136 148 168 149 70 353 342 334 251 217 221 205 218 236 263 257 268 290 304 305 298 279 273 266 260 260 265 264 264 263 268 277 279 275 273 272 270 267 264 263 262 262 262 264 265 259 256 252 250 246 248 248 248 246 246 247
257 256 251 247 244 243 243 138 161 185 181 168 161 153 148 136 124 107 115 135 140 139 138 130 119 117 118 117 117 143 153 143 65 15 4 344 334 322 316 311 310 322 312 317 325 314 304 295 283 289 302 301 297 306 302 302 300 298 293 290 287 285 281 273 267 269 268 268 268 268 266 265 262 261 259 254 253 250 245 242 241 244 242 243 244
251 249 249 244 242 237 196 183 190 174 168 156 135 132 143 125 116 118 123 126 115 120 113 97 92 103 106 118 148 157 198 100 65 47 35 19 335 330 321 327 332 316 1 357 313 299 300 303 307 303 306 309 308 305 305 304 304 299 296 293 291 289 286 283 280 276 275 273 269 266 266 265 263 259 256 253 250 249 239 239 236 239 238 236 240
242 242 239 235 228 178 177 178 174 160 141 119 97 69 45 52 79 112 103 89 108 105 109 120 131 132 108 70 33 35 60 65 91 99 76 258 240 271 296 307 307 304 310 304 292 296 303 308 309 308 307 308 309 307 306 307 305 302 298 294 289 284 281 281 276 274 272 270 272 272 270 266 262 257 254 252 252 248 239 230 233 226 231 231 235
242 240 228 220 168 167 173 163 157 138 121 116 115 110 106 67 51 51 70 104 100 90 83 75 68 67 99 117 75 69 84 96 102 104 187 213 286 293 294 300 299 296 294 304 304 311 313 313 311 309 307 306 306 307 308 305 303 302 301 299 294 289 284 279 276 276 275 273 270 266 264 263 263 261 254 251 249 248 248 234 232 231 230 228 234
234 229 215 184 153 162 165 147 131 118 110 111 104 120 120 115 85 48 49 77 89 91 90 87 84 75 65 70 112 122 122 116 114 183 200 276 288 305 294 288 282 281 284 282 282 308 315 312 310 307 308 305 306 308 307 304 303 302 303 301 298 295 292 286 284 283 281 278 274 270 268 265 261 257 254 251 246 246 242 239 232 230 231 232 233
219 207 173 144 148 143 133 131 126 131 134 129 121 111 107 111 113 102 60 51 61 71 81 90 89 85 81 68 56 70 94 115 149 202 273 295 285 283 286 275 264 258 265 280 317 318 314 312 308 308 308 308 308 308 306 304 302 303 304 303 300 298 294 291 289 286 283 277 273 270 266 262 260 259 256 253 247 246 240 235 230 227 230 232 236
174 144 135 132 130 134 137 133 130 125 120 128 133 135 137 129 120 116 117 117 91 66 54 61 85 95 92 103 115 127 137 157 167 244 321 297 306 284 271 269 256 248 235 309 321 321 316 314 311 309 309 308 307 306 305 303 304 305 303 301 300 298 295 294 292 288 285 279 275 274 268 262 259 259 258 253 246 243 239 234 229 227 227 229 233
124 124 126 128 129 127 121 116 121 125 130 129 131 134 119 121 129 135 139 138 136 136 140 132 154 129 130 140 133 128 154 160 186 281 300 296 284 284 280 272 311 338 300 330 323 316 317 314 314 315 313 313 311 310 306 307 307 306 304 303 301 298 297 295 291 289 285 282 277 275 273 270 266 260 257 253 250 243 237 232 229 225 225 226 228
120 120 119 119 120 123 119 104 100 109 117 126 128 123 129 135 142 147 145 142 140 145 152 155 148 108 113 111 153 167 154 189 198 206 240 244 254 263 303 10 341 345 334 331 329 321 316 317 316 316 317 316 316 313 311 308 307 306 304 303 299 298 297 295 293 292 290 287 284 278 274 264 257 256 253 249 243 242 240 233 228 224 221 225 229
111 115 119 118 119 118 109 110 113 130 137 143 149 151 156 161 160 152 150 150 151 154 149 142 142 144 181 161 174 205 214 203 207 217 220 228 242 252 356 354 346 331 340 334 332 328 322 321 320 318 319 319 317 316 314 311 309 307 304 300 298 296 294 293 293 291 290 287 283 281 275 270 264 257 251 251 244 235 232 228 224 222 222 223 224
117 125 128 124 122 123 136 146 147 150 155 169 161 151 156 159 148 147 147 149 154 156 151 151 157 169 182 179 176 197 196 215 225 233 232 237 238 337 358 355 352 340 338 337 334 331 327 324 324 324 322 320 320 319 318 314 311 308 306 303 299 295 290 290 288 282 277 280 281 276 276 271 265 258 249 243 244 239 232 223 220 218 216 222 225
70 76 83 99 111 127 128 125 135 146 146 145 134 135 134 136 142 143 147 148 159 164 165 161 187 181 159 155 184 192 204 211 209 216 29 357 8 2 354 353 348 347 338 337 339 336 333 330 328 325 322 319 319 318 319 315 312 308 306 305 302 302 301 299 296 294 292 290 285 283 280 275 270 265 258 252 240 232 230 224 213 212 214 215 217
78 82 82 92 101 98 121 131 142 140 129 130 135 137 142 148 152 152 154 158 167 168 168 168 167 132 109 53 359 327 292 337 7 354 21 8 3 4 346 351 350 345 341 337 340 339 335 333 330 324 322 320 319 318 315 314 312 309 307 306 306 303 299 298 298 298 295 294 290 286 284 284 282 278 267 250 240 228 224 219 216 209 217 224 219
81 86 87 83 94 126 134 145 144 138 141 142 144 151 153 158 152 155 155 157 161 160 165 166 131 93 65 40 11 343 306 317 11 337 26 359 1 354 348 346 347 344 340 341 339 339 337 332 330 326 323 322 320 317 316 314 313 311 310 309 307 302 300 300 300 299 296 295 292 291 289 290 287 280 265 244 226 227 222 218 214 212 214 222 220
85 92 100 110 120 137 127 102 93 91 97 102 121 126 133 140 149 151 143 155 147 157 152 142 118 109 89 52 26 334 298 331 0 344 347 341 350 356 348 343 343 346 341 341 341 339 339 334 331 329 327 324 322 318 316 313 313 312 311 309 307 305 305 305 305 303 300 299 297 293 292 292 288 279 265 240 219 217 221 213 212 215 210 200 196
83 94 104 122 119 101 96 93 87 86 84 83 81 74 84 104 112 110 112 99 109 132 129 124 112 117 106 89 34 280 273 26 348 315 348 334 339 343 338 338 342 342 338 338 341 343 338 336 334 332 331 327 322 321 318 316 314 314 311 310 309 309 308 306 305 304 305 304 302 298 298 295 294 291 261 222 228 216 214 209 209 202 193 186 174
94 91 94 99 88 80 72 78 74 72 70 68 71 78 91 99 92 97 98 95 88 84 78 74 64 52 93 150 185 245 25 357 350 349 348 327 332 330 331 333 336 333 332 337 343 345 338 337 336 333 331 329 325 317 318 319 319 317 317 314 311 309 309 309 307 307 308 307 303 303 303 300 296 293 274 225 216 210 199 180 174 171 170 163 151
94 105 105 95 83 83 81 80 86 90 95 93 84 79 70 72 73 66 64 79 71 59 54 55 53 50 53 36 44 33 13 354 340 336 336 335 330 323 322 326 327 330 327 333 343 342 340 339 337 336 334 333 330 326 325 322 321 320 319 317 313 311 313 310 307 304 300 298 304 307 308 310 313 314 304 219 185 166 151 152 153 146 146 144 144
81 86 85 86 83 80 81 79 75 73 71 71 76 74 70 68 64 56 50 48 41 30 42 44 51 39 23 19 22 33 7 346 336 350 340 338 336 330 323 321 324 321 323 331 337 341 342 339 340 340 338 336 331 327 328 324 327 326 319 316 314 309 306 303 301 299 301 302 308 315 314 313 323 339 355 126 143 146 138 131 131 138 135 136 137
65 71 73 78 77 74 68 64 61 62 63 59 60 61 59 57 58 68 63 42 23 20 14 22 17 30 14 10 358 358 347 339 347 350 343 332 333 330 326 322 318 320 323 329 336 341 344 341 343 343 343 337 334 333 331 335 337 334 330 324 320 317 316 317 317 315 317 308 318 331 322 320 330 6 46 81 111 115 121 124 123 123 125 124 123
63 63 64 68 74 77 77 77 77 72 70 64 59 59 56 54 55 46 43 53 38 23 23 27 26 18 360 353 349 340 346 340 346 345 335 339 342 337 334 323 318 320 322 328 336 340 342 343 343 345 344 341 334 333 339 337 335 340 335 331 328 329 335 338 335 335 329 319 335 357 344 344 355 25 59 65 87 106 112 113 114 109 106 106 104
58 61 63 60 62 64 68 69 67 67 70 73 72 68 63 60 53 51 53 45 40 29 31 31 28 12 358 348 340 336 343 342 352 343 343 344 344 342 337 331 320 317 321 329 333 338 344 346 346 348 349 345 348 333 317 334 331 328 336 340 338 343 347 351 351 351 341 350 5 12 16 24 22 16 48 71 74 84 90 95 103 105 105 102 104
58 60 66 68 72 72 72 72 74 76 72 71 70 69 64 60 55 50 46 37 33 32 32 33 26 13 355 348 346 343 345 346 347 344 344 346 345 345 341 335 328 323 323 328 331 340 348 346 349 352 354 357 350 346 346 336 332 334 335 343 347 351 354 358 358 358 357 4 9 22 24 34 26 36 56 70 68 60 62 62 69 81 88 93 102
63 63 66 67 69 71 71 74 74 73 72 72 69 67 61 57 52 47 38 35 29 27 27 25 22 12 1 353 348 342 345 340 342 342 344 345 346 346 344 339 333 329 325 323 332 343 347 346 352 357 0 1 358 359 354 345 340 335 347 354 354 354 360 6 8 4 3 4 12 19 39 38 42 36 39 45 69 74 73 70 71 81 90 101 101